When you browse on this site, cookies collect data to enhance your experience and personalize the content and advertising you see.
Visit our Privacy Policy to learn more. By continuing to use the site, you agree to this use of cookies and data.
  • In United Kingdom
  • List of Countries
  • For 7 days
  • Water Temperature
  • Weather Map
  • Weather Widgets
  • user-avatar
    Login

    Hourly Weather Kaprun

    Today, 29 February, Saturday

    Time Temperature Precipitation Wind Pressure Humidity
    00:00 -13°C° 0 mm 3 mps 591 mmHg 60%
    01:00 -13°C° 0 mm 3 mps 592 mmHg 61%
    02:00 -13°C° 0 mm 3 mps 591 mmHg 62%
    03:00 -13°C° 0 mm 3 mps 590 mmHg 63%
    04:00 -14°C° 0 mm 4 mps 590 mmHg 64%
    05:00 -14°C° 0 mm 4 mps 590 mmHg 65%
    06:00 -14°C° 0 mm 4 mps 589 mmHg 67%
    07:00 -12°C° 0 mm 4 mps 589 mmHg 68%
    08:00 -11°C° 0 mm 4 mps 589 mmHg 71%
    09:00 -9°C° 0 mm 4 mps 590 mmHg 73%
    10:00 -7°C° 0 mm 4 mps 590 mmHg 76%
    11:00 -7°C° 0 mm 4 mps 589 mmHg 79%
    12:00 -5°C° 0 mm 4 mps 589 mmHg 83%
    13:00 -6°C° 0 mm 5 mps 589 mmHg 86%
    14:00 -5°C° 0 mm 4 mps 588 mmHg 85%
    15:00 -5°C° 0 mm 4 mps 588 mmHg 85%
    16:00 -5°C° 0 mm 4 mps 587 mmHg 84%
    17:00 -8°C° 0 mm 4 mps 587 mmHg 85%
    18:00 -9°C° 0 mm 4 mps 586 mmHg 85%
    19:00 -11°C° 0 mm 4 mps 586 mmHg 85%
    20:00 -11°C° 0 mm 4 mps 586 mmHg 85%
    21:00 -11°C° 0 mm 4 mps 586 mmHg 86%
    22:00 -11°C° 0 mm 4 mps 586 mmHg 86%
    23:00 -11°C° 0 mm 4 mps 586 mmHg 86%

    Tomorrow, 1 March, Sunday

    Time Temperature Precipitation Wind Pressure Humidity
    00:00 -11°C° 0 mm 4 mps 586 mmHg 86%
    01:00 -10°C° 0 mm 3 mps 586 mmHg 85%
    02:00 -10°C° 0 mm 3 mps 585 mmHg 86%
    03:00 -10°C° 0 mm 3 mps 585 mmHg 87%
    04:00 -8°C° 0 mm 2 mps 585 mmHg 88%
    05:00 -9°C° 0 mm 2 mps 585 mmHg 88%
    06:00 -9°C° 0 mm 2 mps 585 mmHg 88%
    07:00 -9°C° 0 mm 2 mps 585 mmHg 88%
    08:00 -7°C° 0.1 mm 2 mps 586 mmHg 91%
    09:00 -4°C° 0.1 mm 1 mps 586 mmHg 93%
    10:00 -2°C° 0.1 mm 1 mps 587 mmHg 96%
    11:00 -4°C° 0.7 mm 2 mps 586 mmHg 97%
    12:00 -4°C° 0.7 mm 2 mps 586 mmHg 98%
    13:00 -4°C° 0.7 mm 2 mps 586 mmHg 99%
    14:00 -4°C° 0.9 mm 2 mps 586 mmHg 98%
    15:00 -2°C° 0.9 mm 1 mps 585 mmHg 98%
    16:00 -2°C° 0.9 mm 1 mps 585 mmHg 97%
    17:00 -3°C° 0.2 mm 1 mps 584 mmHg 97%
    18:00 -4°C° 0.2 mm 1 mps 584 mmHg 97%
    19:00 -6°C° 0.2 mm 1 mps 583 mmHg 97%
    20:00 -6°C° 0.2 mm 1 mps 583 mmHg 96%
    21:00 -6°C° 0.2 mm 1 mps 582 mmHg 96%
    22:00 -6°C° 0.2 mm 0 mps 582 mmHg 95%
    23:00 -6°C° 0.5 mm 1 mps 582 mmHg 96%

    Day after tomorrow, 2 March, Monday

    Time Temperature Precipitation Wind Pressure Humidity
    00:00 -7°C° 0.5 mm 1 mps 582 mmHg 96%
    01:00 -7°C° 0.5 mm 1 mps 581 mmHg 97%
    02:00 -6°C° 0.9 mm 1 mps 582 mmHg 97%
    03:00 -6°C° 0.9 mm 1 mps 582 mmHg 97%
    04:00 -6°C° 0.9 mm 1 mps 582 mmHg 97%
    05:00 -7°C° 0.2 mm 1 mps 581 mmHg 95%
    06:00 -9°C° 0.2 mm 2 mps 581 mmHg 93%
    07:00 -10°C° 0.2 mm 2 mps 581 mmHg 91%
    08:00 -9°C° 0 mm 3 mps 581 mmHg 91%
    09:00 -7°C° 0 mm 3 mps 582 mmHg 91%
    10:00 -5°C° 0 mm 4 mps 582 mmHg 92%
    11:00 -5°C° 0 mm 4 mps 582 mmHg 92%
    12:00 -4°C° 0 mm 4 mps 582 mmHg 92%
    13:00 -4°C° 0 mm 4 mps 581 mmHg 92%
    14:00 -4°C° 0.1 mm 4 mps 580 mmHg 92%
    15:00 -4°C° 0.1 mm 4 mps 580 mmHg 91%
    16:00 -4°C° 0.1 mm 4 mps 579 mmHg 91%
    17:00 -5°C° 0.4 mm 3 mps 578 mmHg 91%
    18:00 -6°C° 0.4 mm 3 mps 578 mmHg 91%
    19:00 -6°C° 0.4 mm 2 mps 578 mmHg 91%
    20:00 -6°C° 0.9 mm 2 mps 578 mmHg 93%
    21:00 -4°C° 0.9 mm 1 mps 578 mmHg 95%
    22:00 -4°C° 0.9 mm 1 mps 578 mmHg 97%
    23:00 -6°C° 1.6 mm 2 mps 578 mmHg 97%

    3 March, Tuesday

    Time Temperature Precipitation Wind Pressure Humidity
    00:00 -7°C° 1.6 mm 2 mps 578 mmHg 97%
    01:00 -8°C° 1.6 mm 3 mps 578 mmHg 96%
    02:00 -8°C° 2 mm 3 mps 578 mmHg 96%
    03:00 -9°C° 2 mm 3 mps 578 mmHg 96%
    04:00 -9°C° 2 mm 3 mps 578 mmHg 96%
    05:00 -10°C° 1.2 mm 3 mps 579 mmHg 96%
    06:00 -10°C° 1.2 mm 3 mps 579 mmHg 96%
    07:00 -10°C° 1.2 mm 3 mps 580 mmHg 95%
    08:00 -10°C° 0.4 mm 3 mps 580 mmHg 94%
    09:00 -10°C° 0.4 mm 3 mps 581 mmHg 93%
    10:00 -10°C° 0.4 mm 4 mps 581 mmHg 91%
    11:00 -9°C° 0.2 mm 3 mps 582 mmHg 90%
    12:00 -9°C° 0.2 mm 3 mps 582 mmHg 88%
    13:00 -9°C° 0.2 mm 3 mps 582 mmHg 86%
    14:00 -9°C° 0.1 mm 3 mps 582 mmHg 86%
    15:00 -9°C° 0.1 mm 3 mps 582 mmHg 87%
    16:00 -9°C° 0.1 mm 3 mps 583 mmHg 87%
    17:00 -9°C° 0.2 mm 2 mps 583 mmHg 89%
    18:00 -10°C° 0.2 mm 2 mps 583 mmHg 92%
    19:00 -12°C° 0.2 mm 2 mps 583 mmHg 95%
    20:00 -12°C° 0.2 mm 2 mps 583 mmHg 95%
    21:00 -12°C° 0.2 mm 2 mps 584 mmHg 95%
    22:00 -13°C° 0.2 mm 2 mps 584 mmHg 94%
    23:00 -13°C° 0.1 mm 2 mps 584 mmHg 94%

    4 March, Wednesday

    Time Temperature Precipitation Wind Pressure Humidity
    00:00 -14°C° 0.1 mm 2 mps 584 mmHg 94%
    01:00 -14°C° 0.1 mm 2 mps 583 mmHg 94%
    02:00 -14°C° 0 mm 2 mps 583 mmHg 91%
    03:00 -15°C° 0 mm 2 mps 583 mmHg 89%
    04:00 -15°C° 0 mm 2 mps 583 mmHg 86%
    05:00 -15°C° 0 mm 2 mps 583 mmHg 87%
    06:00 -15°C° 0 mm 2 mps 584 mmHg 87%
    07:00 -15°C° 0 mm 2 mps 584 mmHg 88%
    08:00 -13°C° 0 mm 2 mps 585 mmHg 86%
    09:00 -9°C° 0 mm 1 mps 585 mmHg 85%
    10:00 -7°C° 0 mm 1 mps 586 mmHg 84%
    11:00 -6°C° 0 mm 1 mps 586 mmHg 83%
    12:00 -6°C° 0 mm 1 mps 586 mmHg 82%
    13:00 -4°C° 0 mm 1 mps 586 mmHg 82%
    14:00 -4°C° 0 mm 1 mps 586 mmHg 82%
    15:00 -4°C° 0 mm 1 mps 586 mmHg 83%
    16:00 -6°C° 0 mm 1 mps 586 mmHg 83%
    17:00 -7°C° 0 mm 1 mps 586 mmHg 87%
    18:00 -9°C° 0 mm 1 mps 585 mmHg 91%
    19:00 -10°C° 0 mm 1 mps 585 mmHg 95%
    20:00 -11°C° 0.1 mm 1 mps 585 mmHg 94%
    21:00 -13°C° 0.1 mm 2 mps 586 mmHg 92%
    22:00 -13°C° 0.1 mm 2 mps 586 mmHg 91%
    23:00 -14°C° 0 mm 2 mps 586 mmHg 89%

    5 March, Thursday

    Time Temperature Precipitation Wind Pressure Humidity
    00:00 -14°C° 0 mm 2 mps 586 mmHg 87%
    01:00 -14°C° 0 mm 2 mps 586 mmHg 85%
    02:00 -14°C° 0 mm 2 mps 585 mmHg 84%
    03:00 -14°C° 0 mm 2 mps 585 mmHg 83%
    04:00 -15°C° 0 mm 2 mps 585 mmHg 83%
    05:00 -15°C° 0 mm 2 mps 585 mmHg 81%
    06:00 -12°C° 0 mm 1 mps 585 mmHg 79%
    07:00 -12°C° 0 mm 1 mps 585 mmHg 77%
    08:00 -10°C° 0 mm 1 mps 586 mmHg 76%
    09:00 -7°C° 0 mm 1 mps 587 mmHg 75%
    10:00 -4°C° 0 mm 1 mps 588 mmHg 74%
    11:00 -5°C° 0 mm 2 mps 587 mmHg 77%
    12:00 -5°C° 0 mm 2 mps 587 mmHg 80%
    13:00 -4°C° 0 mm 2 mps 587 mmHg 84%
    14:00 -4°C° 0 mm 2 mps 587 mmHg 86%
    15:00 -4°C° 0 mm 2 mps 586 mmHg 88%
    16:00 -4°C° 0 mm 2 mps 586 mmHg 91%
    17:00 -5°C° 0 mm 2 mps 586 mmHg 91%
    18:00 -7°C° 0 mm 3 mps 585 mmHg 91%
    19:00 -8°C° 0 mm 3 mps 585 mmHg 91%
    20:00 -9°C° 0 mm 3 mps 585 mmHg 91%
    21:00 -9°C° 0 mm 3 mps 585 mmHg 90%
    22:00 -10°C° 0 mm 3 mps 585 mmHg 90%
    23:00 -10°C° 0 mm 3 mps 585 mmHg 90%
    Show more